Location: Austin
(30.3000°N, 97.7500°W)
Time: 19:56:46
(UTC-06:00)

NOSS 2-2 (E) - Pass Details

Date: 31 October 2024
Orbit: 398 x 1741 km, 63.3° (Epoch: 05 November)

Event Time Altitude Azimuth Distance (km) Brightness Sun altitude
Exits shadow 05:55:50 51° 253° (WSW) 1,166 4.5 -24.0°
Maximum altitude 05:56:09 52° 242° (WSW) 1,173 4.5 -23.9°
Drops below altitude 10° 06:03:23 10° 169° (S) 3,194 7.3 -22.4°
Sets 06:06:44 0° 165° (SSE) 4,374 8.1 -21.7°
